Location: Chmeln�
(49.6483°N, 14.9871°E)
Time: 02:14:01
(UTC+00:00)

Resurs 01 Rocket - Pass Details

Date: 18 September 2020
Orbit: 633 x 645 km, 98.0° (Epoch: 24 October)

Event Time Altitude Azimuth Distance (km) Brightness Sun altitude
Exits shadow 19:19:15 57° 138° (SE) 763 1.6 -21.4°
Maximum altitude 19:20:04 75° 73° (ENE) 675 1.5 -21.5°
Drops below altitude 10° 19:24:32 10° 349° (N) 2,054 4.8 -22.1°
Sets 19:26:45 0° 348° (NNW) 2,967 5.7 -22.4°
